Location: Caltech
(34.1382°N, 118.1253°W)
Time: 10:10:26
(UTC-07:00)

Iridium 91 - Visible Passes

Search period start: 23 October 2014 00:00
Search period end: 02 November 2014 00:00
Orbit: 775 x 780 km, 86.4° (Epoch: 23 October)

Date Brightness Start Highest point End Pass type
(mag) Time Alt. Az. Time Alt. Az. Time Alt. Az.
31 Oct 7.2 19:55:46 10° S 19:57:17 20° SSE 19:57:17 20° SSE visible
01 Nov 8.5 06:31:36 10° NE 06:34:18 14° ENE 06:36:59 10° ESE visible
01 Nov 6.5 19:22:56 10° SSE 19:25:57 27° ESE 19:25:57 27° ESE visible
01 Nov 7.8 21:04:11 10° SW 21:06:35 20° WSW 21:06:35 20° WSW visible
